This demonstration page uses our WeatherBlox Daily Observations layout. Learn more.

Left ArrowRight Arrow

Hourly Observations for November 2, 2020

Temp ( °F °C ) Dew Point ( °F °C ) Humidity (%) Winds ( mph kmh ) Pressure ( in mb ) Visibility ( mi km ) Precip ( " mm )
12:15 am 00:15 Clear 39 4.1 22 -5.8 49 49 S 10 17 30.45 1031 10 16 N/A
12:35 am 00:35 Clear 39 4.1 22 -5.6 50 50 S 8 13 30.44 1031 10 16 N/A
12:55 am 00:55 Clear 39 4 22 -5.5 50 50 S 10 17 30.43 1030 10 16 N/A
1:15 am 01:15 Clear 39 3.9 23 -5.1 52 52 S 8 13 30.44 1031 10 16 N/A
1:35 am 01:35 Clear 39 3.8 23 -5 53 53 S 9 15 30.43 1030 10 16 N/A
1:55 am 01:55 Clear 39 3.7 23 -4.8 54 54 S 8 13 30.43 1030 10 16 N/A
2:15 am 02:15 Clear 38 3.3 24 -4.7 56 56 SSW 8 13 30.42 1030 10 16 N/A
2:35 am 02:35 Clear 37 3 24 -4.7 57 57 SSW 6 9 30.43 1030 10 16 N/A
2:55 am 02:55 Clear 36 2.4 24 -4.6 60 60 SW 6 9 30.43 1031 10 16 N/A
3:15 am 03:15 Clear 36 2 24 -4.6 62 62 SW 5 7 30.44 1031 10 16 N/A
3:35 am 03:35 Clear 35 1.5 24 -4.6 64 64 SW 5 7 30.43 1031 10 16 N/A
3:55 am 03:55 Clear 35 1.7 24 -4.5 64 64 SW 6 9 30.42 1030 10 16 N/A
4:15 am 04:15 Clear 34 1 24 -4.5 67 67 SW 7 11 30.43 1030 10 16 N/A
4:35 am 04:35 Clear 34 1 24 -4.3 68 68 SSW 6 9 30.41 1030 10 16 N/A
4:55 am 04:55 Clear 34 1 25 -4.1 69 69 SSW 5 7 30.41 1030 10 16 N/A
5:15 am 05:15 Clear 34 1.1 25 -4 69 69 SSW 3 6 30.41 1030 10 16 N/A
5:35 am 05:35 Clear 34 1.2 25 -3.7 70 70 SSW 5 7 30.41 1030 10 16 N/A
5:55 am 05:55 Clear 35 1.4 26 -3.5 70 70 SW 6 9 30.41 1030 10 16 N/A
6:15 am 06:15 Clear 33 0.7 25 -3.7 73 73 SW 5 7 30.41 1030 10 16 N/A
6:35 am 06:35 Clear 33 0.8 26 -3.4 74 74 SW 8 13 30.41 1030 10 16 N/A
6:55 am 06:55 Clear 34 1 26 -3.6 72 72 WSW 6 9 30.41 1030 10 16 N/A
7:15 am 07:15 Sunny 34 1.3 26 -3.1 73 73 WSW 6 9 30.39 1029 10 16 N/A
7:35 am 07:35 Sunny 36 2.2 27 -2.6 71 71 WSW 5 7 30.38 1029 10 16 N/A
7:55 am 07:55 Sunny 38 3.5 28 -2 68 68 WSW 5 7 30.37 1029 10 16 N/A
8:15 am 08:15 Sunny 40 4.5 29 -1.5 65 65 W 6 9 30.37 1029 10 16 N/A
8:35 am 08:35 Sunny 40 4.7 29 -1.5 64 64 W 6 9 30.37 1028 10 16 N/A
8:55 am 08:55 Sunny 44 6.4 31 -0.6 61 61 WNW 6 9 30.36 1028 10 16 N/A
9:15 am 09:15 Sunny 46 8 31 -0.5 55 55 W 5 7 30.34 1027 10 16 N/A
9:35 am 09:35 Sunny 50 9.9 32 -0.2 50 50 W 6 9 30.31 1027 10 16 N/A
9:55 am 09:55 Sunny 53 11.5 32 -0.2 45 45 WNW 8 13 30.30 1026 10 16 N/A
10:15 am 10:15 Sunny 55 12.8 32 -0.1 41 41 WNW 7 11 30.28 1025 10 16 N/A
10:35 am 10:35 Sunny 57 13.8 31 -0.3 38 38 WNW 6 9 30.27 1025 10 16 N/A
10:55 am 10:55 Sunny 59 15 32 -0.1 36 36 W 5 7 30.26 1025 10 16 N/A
11:15 am 11:15 Sunny 61 16 31 -0.4 33 33 W 6 9 30.24 1024 10 16 N/A
11:35 am 11:35 Sunny 63 17.3 31 -0.4 30 30 WSW 3 6 30.22 1023 10 16 N/A
11:55 am 11:55 Sunny 65 18.6 30 -1.2 26 26 N N/A 30.20 1023 10 16 N/A
12:15 pm 12:15 Sunny 68 20 30 -1.3 24 24 N N/A 30.19 1022 10 16 N/A
12:35 pm 12:35 Sunny 70 21 29 -1.6 22 22 N N/A 30.17 1022 10 16 N/A
12:50 pm 12:50 Sunny 70 21.3 28 -2 21 21 W 3 6 30.16 1021 10 16 N/A
1:15 pm 13:15 Sunny 72 22 28 -2.5 19 19 N N/A 30.13 1020 10 16 N/A
1:30 pm 13:30 Sunny 73 22.7 27 -2.6 18 18 W 3 6 30.12 1020 10 16 N/A
1:55 pm 13:55 Sunny 75 23.9 28 -2.4 17 17 WSW 8 13 30.09 1019 10 16 N/A
2:15 pm 14:15 undefined 76 24.2 28 -2.3 17 17 WSW 7 11 30.08 1019 10 16 N/A
2:35 pm 14:35 Sunny 76 24.4 28 -2.1 17 17 W 7 11 30.08 1019 10 16 N/A
2:55 pm 14:55 Sunny 77 24.8 28 -2 17 17 W 9 15 30.07 1018 10 16 N/A
3:15 pm 15:15 Sunny 76 24.7 28 -2.3 17 17 W 8 13 30.07 1018 10 16 N/A
3:35 pm 15:35 Sunny 76 24.5 28 -2.1 17 17 W 7 11 30.06 1018 10 16 N/A
3:55 pm 15:55 Sunny 76 24.3 29 -1.9 18 18 WSW 10 17 30.06 1018 10 16 N/A
4:15 pm 16:15 Sunny 75 23.9 29 -1.8 18 18 WSW 7 11 30.05 1018 10 16 N/A
4:35 pm 16:35 Sunny 74 23.3 30 -1.2 20 20 SW 5 7 30.06 1018 10 16 N/A
4:55 pm 16:55 Sunny 73 22.6 31 -0.8 21 21 SSW 3 6 30.06 1018 10 16 N/A
5:15 pm 17:15 Sunny 71 21.6 31 -0.8 22 22 SSW 5 7 30.06 1018 10 16 N/A
5:35 pm 17:35 Clear 67 19.3 30 -1 26 26 S 3 6 30.07 1018 10 16 N/A
5:55 pm 17:55 Clear 59 15.1 30 -1.2 33 33 N N/A 30.12 1020 10 16 N/A
6:15 pm 18:15 Clear 56 13.5 30 -1.3 36 36 SE 3 6 30.13 1020 10 16 N/A
6:35 pm 18:35 Clear 59 15.1 30 -1 33 33 SE 6 9 30.11 1020 10 16 N/A
6:55 pm 18:55 Clear 55 12.9 29 -1.4 37 37 SE 5 7 30.14 1021 10 16 N/A
7:15 pm 19:15 Clear 56 13.3 29 -1.4 36 36 SE 5 7 30.13 1020 10 16 N/A
7:35 pm 19:35 Clear 53 11.4 30 -1.3 42 42 SE 6 9 30.15 1021 10 16 N/A
7:55 pm 19:55 Clear 55 12.8 29 -1.6 37 37 SE 6 9 30.13 1020 10 16 N/A
8:15 pm 20:15 Clear 51 10.6 29 -1.6 43 43 SE 6 9 30.15 1021 10 16 N/A
8:35 pm 20:35 Clear 52 11 29 -1.5 42 42 SSE 5 7 30.14 1021 10 16 N/A
8:55 pm 20:55 Clear 52 11 29 -1.5 42 42 S 5 7 30.14 1021 10 16 N/A
9:15 pm 21:15 Clear 53 11.5 29 -1.5 41 41 SSW 10 17 30.14 1021 10 16 N/A
9:35 pm 21:35 Clear 56 13.2 29 -1.5 36 36 S 9 15 30.11 1020 10 16 N/A
9:55 pm 21:55 Clear 55 12.8 29 -1.5 37 37 S 7 11 30.12 1020 10 16 N/A
10:15 pm 22:15 Clear 54 12 29 -1.5 39 39 S 7 11 30.13 1020 10 16 N/A
10:35 pm 22:35 Clear 54 12 29 -1.7 39 39 S 8 13 30.13 1020 10 16 N/A
10:55 pm 22:55 Clear 51 10.8 30 -1.3 43 43 S 7 11 30.13 1020 10 16 N/A
11:15 pm 23:15 Clear 50 10.2 29 -1.4 45 45 S 7 11 30.13 1020 10 16 N/A
11:35 pm 23:35 Clear 50 10 29 -1.7 44 44 SSW 7 11 30.11 1020 10 16 N/A
11:55 pm 23:55 Clear 51 10.8 29 -1.7 42 42 SSW 9 15 30.11 1019 10 16 N/A

Powered by AerisWeather